389  
ASUS45 KREV 150110  
RWRNV  
NEVADA REGIONAL WEATHER ROUNDUP  
NATIONAL WEATHER SERVICE RENO NV  
600 PM PDT FRI AUG 14 2020  
 
NOTE: "FAIR" INDICATES FEW OR NO CLOUDS BELOW 12,000 FEET WITH NO  
SIGNIFICANT WEATHER AND/OR S TO VISIBILITY
.  
 
NVZ001-003-004-150200-  
WESTERN NEVADA  
 
CITY SKY/WX TMP DP RH WIND PRES REMARKS
 
RENO PTSUNNY 89 48 24 W9 30.12R THUNDER  
CARSON CITY FAIR 93 41 16 W10 30.14S  
MINDEN FAIR 93 45 18 NW12 30.14S  
PYRAMID LAKE N/A 84 N/A N/A N2 N/A  
FALLON PTSUNNY 95 36 12 CALM 30.07F  
LOVELOCK SUNNY 95 40 14 NE10 30.08F  
HAWTHORNE SUNNY 93 37 14 N12 30.09S  

 
 
NVZ002-CAZ072-073-150200-  
NORTHERN AND CENTRAL SIERRA  
 
CITY SKY/WX TMP DP RH WIND PRES REMARKS
 
S. LAKE TAHOE MOSUNNY 82 47 29 N7 30.28S  
TRUCKEE MOSUNNY 84 43 23 W9 30.26S  
SQUAW VLY 8000 N/A 75 43 31 SW6 N/A  
BLUE CANYON N/A 85 46 25 W8 30.24S  
MAMMOTH LAKES FAIR 81 36 19 W8 30.35F  
BRIDGEPORT N/A 81 46 30 NE13 N/A  

 
 
NVZ030-031-036-150200-  
NORTHERN NEVADA  
 
CITY SKY/WX TMP DP RH WIND PRES REMARKS
 
ELKO MOSUNNY 92 33 12 W14 30.17F  
WINNEMUCCA PTSUNNY 93 33 12 SW5 30.12S  
BATTLE MOUNTAI MOCLDY 93 34 12 SW13 30.13F  
WENDOVER SUNNY 92 29 10 SE9 30.10S  

 
 
NVZ035-037-150200-  
CENTRAL NEVADA  
 
CITY SKY/WX TMP DP RH WIND PRES REMARKS
 
ELY PTSUNNY 88 29 12 NW17G31 30.25S  
EUREKA N/A 85 36 17 CALM 30.25S  

 
 
NVZ013-014-150200-  
SOUTH CENTRAL NEVADA  
 
CITY SKY/WX TMP DP RH WIND PRES REMARKS
 
TONOPAH MOSUNNY 92 26 9 NW3 30.18F  

 
 
NVZ017-020-022-150200-  
SOUTHERN NEVADA  
 
CITY SKY/WX TMP DP RH WIND PRES REMARKS
 
LAS VEGAS MOSUNNY 109 41 10 NW9 29.86F  
N. LAS VEGAS SUNNY 111 36 8 NW10 29.84S  
NELLIS AFB SUNNY 111 33 7 W15G24 29.79  
HENDERSON SUNNY 108 44 11 N6 29.90S  
MERCURY SUNNY 103 35 9 SW7 29.97S  

 
 
 
CLICK HERE TO GO TO PREVIOUS BULLETINS.

The Nexlab NV Page Main Text Page